Location: Knowlton
(51.2333°N, 1.2667°E)
Time: 00:10:14
(UTC+00:00)

ZACube-1 - Pass Details

Date: 28 November 2021
Orbit: 582 x 665 km, 97.6° (Epoch: 21 January)

Event Time Altitude Azimuth Distance (km) Brightness Sun altitude
Rises 05:52:44 0° 2° (N) 2,969 ? -15.0°
Reaches altitude 10° 05:55:27 10° 345° (NNW) 2,067 ? -14.6°
Enters shadow 05:57:34 18° 319° (NW) 1,617 ? -14.3°
